VPBKM WSSL-VTSP

Flight info

Callsign VPBKM
Flight time 1h 23m
Altitude 34000
Route OMKOM DCT AROSO Y513 KALIL Y501 RINBA Y502 DUBAX R325 URGAD URGAD1D
Aircraft CL60/M-SBDE2E3FGHIJ1RWXYZ/LB1

Departure

Time 2026-04-25 04:58
Airport Seletar Airport (WSSL)

Arrival

Time 2026-04-25 06:21
Airport Phuket International Airport (VTSP)
Time Latitude Longitude Altitude Speed Heading
2026-04-25 04:10 1.41013 103.86558 51 ft 0 kts 303°
2026-04-25 04:55 1.41018 103.86550 51 ft 4 kts 303°
2026-04-25 04:55 1.41020 103.86513 51 ft 7 kts 220°
2026-04-25 04:56 1.40961 103.86481 51 ft 11 kts 209°
2026-04-25 04:56 1.40882 103.86434 51 ft 15 kts 211°
2026-04-25 04:56 1.40809 103.86390 51 ft 9 kts 212°
2026-04-25 04:56 1.40785 103.86364 51 ft 6 kts 252°
2026-04-25 04:57 1.40806 103.86313 51 ft 10 kts 302°
2026-04-25 04:57 1.40847 103.86250 51 ft 7 kts 303°
2026-04-25 04:57 1.40867 103.86224 51 ft 4 kts 340°
2026-04-25 04:57 1.40903 103.86243 51 ft 10 kts 33°
2026-04-25 04:58 1.41266 103.86484 51 ft 115 kts 35°
2026-04-25 04:58 1.42135 103.87038 314 ft 170 kts 33°
2026-04-25 04:58 1.43125 103.87766 1243 ft 182 kts 48°
2026-04-25 04:58 1.43880 103.88834 2039 ft 207 kts 54°
2026-04-25 04:59 1.44778 103.89979 2765 ft 212 kts 49°
2026-04-25 04:59 1.45786 103.91142 3249 ft 229 kts 49°
2026-04-25 04:59 1.46826 103.92351 3681 ft 230 kts 50°
2026-04-25 04:59 1.47856 103.93568 4132 ft 230 kts 51°
2026-04-25 05:00 1.48881 103.94813 4585 ft 231 kts 51°
2026-04-25 05:00 1.49959 103.96031 5037 ft 233 kts 41°
2026-04-25 05:00 1.51376 103.96819 5485 ft 238 kts 17°
2026-04-25 05:00 1.53083 103.96916 6113 ft 259 kts 351°
2026-04-25 05:01 1.54755 103.96122 6969 ft 281 kts 322°
2026-04-25 05:01 1.56224 103.94772 8013 ft 291 kts 319°
2026-04-25 05:01 1.57716 103.93377 9111 ft 298 kts 319°
2026-04-25 05:01 1.59237 103.91961 10183 ft 305 kts 319°
2026-04-25 05:02 1.60838 103.90472 10920 ft 324 kts 319°
2026-04-25 05:02 1.62532 103.88899 11752 ft 337 kts 318°
2026-04-25 05:02 1.64256 103.87296 12653 ft 346 kts 319°
2026-04-25 05:02 1.66042 103.85637 13617 ft 351 kts 319°
2026-04-25 05:03 1.67825 103.83981 14564 ft 355 kts 319°
2026-04-25 05:03 1.69653 103.82284 15446 ft 360 kts 319°
2026-04-25 05:03 1.71517 103.80554 16282 ft 366 kts 319°
2026-04-25 05:03 1.73392 103.78815 17056 ft 372 kts 320°
2026-04-25 05:04 1.75305 103.77040 17916 ft 376 kts 320°
2026-04-25 05:04 1.77215 103.75267 18776 ft 377 kts 319°
2026-04-25 05:04 1.79134 103.73486 19516 ft 382 kts 319°
2026-04-25 05:04 1.81114 103.71651 20219 ft 387 kts 319°
2026-04-25 05:05 1.83097 103.69812 20887 ft 392 kts 319°
2026-04-25 05:05 1.85108 103.67947 21584 ft 395 kts 319°
2026-04-25 05:05 1.87117 103.66084 22241 ft 399 kts 319°
2026-04-25 05:05 1.89162 103.64186 22865 ft 404 kts 319°
2026-04-25 05:06 1.91241 103.62258 23510 ft 408 kts 319°
2026-04-25 05:06 1.93331 103.60320 24158 ft 412 kts 319°
2026-04-25 05:06 1.95456 103.58350 24775 ft 416 kts 319°
2026-04-25 05:06 1.97575 103.56385 25413 ft 418 kts 319°
2026-04-25 05:07 1.99722 103.54394 26031 ft 421 kts 319°
2026-04-25 05:07 2.01876 103.52396 26612 ft 424 kts 319°
2026-04-25 05:07 2.04045 103.50383 27143 ft 427 kts 319°
2026-04-25 05:07 2.06237 103.48351 27655 ft 431 kts 319°
2026-04-25 05:08 2.08464 103.46285 28169 ft 434 kts 319°
2026-04-25 05:08 2.10691 103.44220 28664 ft 437 kts 319°
2026-04-25 05:08 2.12908 103.42082 29110 ft 442 kts 313°
2026-04-25 05:08 2.14669 103.39569 29527 ft 448 kts 298°
2026-04-25 05:09 2.15786 103.36627 29924 ft 452 kts 287°
2026-04-25 05:09 2.16664 103.33598 30289 ft 457 kts 287°
2026-04-25 05:09 2.17563 103.30523 30693 ft 459 kts 287°
2026-04-25 05:09 2.18466 103.27434 31127 ft 461 kts 286°
2026-04-25 05:10 2.19373 103.24334 31514 ft 463 kts 286°
2026-04-25 05:10 2.20283 103.21223 31812 ft 467 kts 286°
2026-04-25 05:10 2.21199 103.18093 32186 ft 469 kts 286°
2026-04-25 05:10 2.22110 103.14980 32493 ft 472 kts 286°
2026-04-25 05:11 2.23031 103.11831 32757 ft 475 kts 286°
2026-04-25 05:11 2.23974 103.08605 33103 ft 477 kts 286°
2026-04-25 05:11 2.24906 103.05419 33443 ft 478 kts 286°
2026-04-25 05:12 2.26776 102.99027 33853 ft 483 kts 286°
2026-04-25 05:12 2.27726 102.95779 33848 ft 484 kts 286°
2026-04-25 05:12 2.29601 102.89368 33850 ft 481 kts 286°
2026-04-25 05:13 2.31481 102.82958 33849 ft 480 kts 286°
2026-04-25 05:13 2.33362 102.76547 33850 ft 479 kts 286°
2026-04-25 05:14 2.35222 102.70178 33853 ft 479 kts 286°
2026-04-25 05:15 2.38036 102.60541 33849 ft 479 kts 286°
2026-04-25 05:15 2.39900 102.54158 33852 ft 480 kts 286°
2026-04-25 05:16 2.41771 102.47750 33866 ft 479 kts 286°
2026-04-25 05:16 2.43653 102.41352 33874 ft 479 kts 288°
2026-04-25 05:17 2.46351 102.35310 33880 ft 478 kts 301°
2026-04-25 05:17 2.50386 102.29991 33877 ft 477 kts 314°
2026-04-25 05:18 2.55393 102.25687 33878 ft 476 kts 322°
2026-04-25 05:18 2.60653 102.21562 33888 ft 476 kts 322°
2026-04-25 05:19 2.65852 102.17481 33881 ft 477 kts 322°
2026-04-25 05:19 2.71097 102.13364 33881 ft 476 kts 322°
2026-04-25 05:20 2.76327 102.09257 33887 ft 476 kts 322°
2026-04-25 05:20 2.81552 102.05155 33900 ft 475 kts 322°
2026-04-25 05:21 2.86757 102.01067 33914 ft 475 kts 322°
2026-04-25 05:21 2.92003 101.96947 33921 ft 475 kts 322°
2026-04-25 05:22 2.97204 101.92863 33918 ft 476 kts 322°
2026-04-25 05:22 3.02458 101.88734 33917 ft 475 kts 322°
2026-04-25 05:23 3.07660 101.84647 33905 ft 475 kts 322°
2026-04-25 05:23 3.12825 101.80592 33888 ft 474 kts 322°
2026-04-25 05:24 3.18095 101.76451 33882 ft 474 kts 322°
2026-04-25 05:24 3.23328 101.72337 33875 ft 477 kts 322°
2026-04-25 05:25 3.28582 101.68217 33886 ft 479 kts 322°
2026-04-25 05:25 3.33885 101.64081 33900 ft 480 kts 322°
2026-04-25 05:26 3.39200 101.60009 33892 ft 480 kts 326°
2026-04-25 05:26 3.45195 101.57044 33889 ft 478 kts 340°
2026-04-25 05:27 3.51444 101.54664 33887 ft 479 kts 339°
2026-04-25 05:27 3.57699 101.52251 33873 ft 478 kts 339°
2026-04-25 05:28 3.63916 101.49837 33857 ft 478 kts 339°
2026-04-25 05:28 3.70160 101.47398 33861 ft 478 kts 339°
2026-04-25 05:29 3.76386 101.44957 33861 ft 478 kts 339°
2026-04-25 05:29 3.82604 101.42512 33869 ft 478 kts 339°
2026-04-25 05:30 3.88802 101.39897 33875 ft 478 kts 336°
2026-04-25 05:30 3.94895 101.37186 33883 ft 478 kts 336°
2026-04-25 05:31 4.00988 101.34477 33887 ft 477 kts 336°
2026-04-25 05:31 4.07106 101.31757 33890 ft 477 kts 336°
2026-04-25 05:32 4.13145 101.29069 33879 ft 477 kts 336°
2026-04-25 05:32 4.19058 101.26437 33877 ft 477 kts 336°
2026-04-25 05:33 4.25200 101.23704 33870 ft 478 kts 336°
2026-04-25 05:33 4.31270 101.21002 33894 ft 478 kts 336°
2026-04-25 05:34 4.37338 101.18301 33902 ft 478 kts 336°
2026-04-25 05:34 4.43399 101.15603 33906 ft 477 kts 336°
2026-04-25 05:35 4.49461 101.12903 33911 ft 477 kts 336°
2026-04-25 05:35 4.55577 101.10178 33909 ft 477 kts 336°
2026-04-25 05:36 4.61666 101.07522 33907 ft 477 kts 336°
2026-04-25 05:36 4.67786 101.04887 33909 ft 476 kts 336°
2026-04-25 05:37 4.73900 101.02253 33903 ft 477 kts 336°
2026-04-25 05:37 4.80048 100.99603 33908 ft 477 kts 336°
2026-04-25 05:38 4.86141 100.96977 33918 ft 476 kts 336°
2026-04-25 05:38 4.92255 100.94340 33925 ft 476 kts 336°
2026-04-25 05:39 4.98365 100.91706 33927 ft 476 kts 336°
2026-04-25 05:39 5.04469 100.89069 33925 ft 477 kts 336°
2026-04-25 05:40 5.10653 100.86398 33919 ft 477 kts 336°
2026-04-25 05:40 5.16791 100.83746 33911 ft 477 kts 336°
2026-04-25 05:41 5.22944 100.81087 33906 ft 476 kts 336°
2026-04-25 05:41 5.29078 100.78435 33894 ft 476 kts 336°
2026-04-25 05:42 5.35194 100.75790 33886 ft 475 kts 336°
2026-04-25 05:42 5.41106 100.72740 33879 ft 475 kts 330°
2026-04-25 05:43 5.46936 100.69432 33878 ft 475 kts 330°
2026-04-25 05:43 5.52732 100.66149 33878 ft 475 kts 330°
2026-04-25 05:44 5.58530 100.62866 33883 ft 475 kts 330°
2026-04-25 05:44 5.64326 100.59584 33884 ft 475 kts 330°
2026-04-25 05:45 5.70083 100.56325 33880 ft 475 kts 330°
2026-04-25 05:45 5.75868 100.53051 33874 ft 475 kts 330°
2026-04-25 05:46 5.81620 100.49707 33869 ft 474 kts 329°
2026-04-25 05:46 5.87273 100.46309 33859 ft 474 kts 329°
2026-04-25 05:47 5.92967 100.42888 33865 ft 474 kts 329°
2026-04-25 05:47 5.98660 100.39468 33864 ft 475 kts 329°
2026-04-25 05:48 6.04359 100.36046 33867 ft 475 kts 329°
2026-04-25 05:48 6.10037 100.32636 33868 ft 474 kts 329°
2026-04-25 05:49 6.15776 100.29187 33863 ft 473 kts 329°
2026-04-25 05:49 6.21445 100.25781 33862 ft 473 kts 329°
2026-04-25 05:50 6.27102 100.22382 33865 ft 473 kts 329°
2026-04-25 05:50 6.32769 100.18976 33869 ft 473 kts 329°
2026-04-25 05:51 6.38441 100.15566 33865 ft 473 kts 329°
2026-04-25 05:51 6.43885 100.11752 33860 ft 473 kts 318°
2026-04-25 05:52 6.48405 100.06970 33859 ft 472 kts 312°
2026-04-25 05:52 6.52860 100.02055 33857 ft 473 kts 312°
2026-04-25 05:53 6.57311 99.97144 33864 ft 473 kts 312°
2026-04-25 05:53 6.61747 99.92246 33867 ft 473 kts 312°
2026-04-25 05:54 6.66191 99.87338 33859 ft 473 kts 312°
2026-04-25 05:54 6.72860 99.79972 33857 ft 472 kts 311°
2026-04-25 05:55 6.77278 99.75089 33853 ft 472 kts 311°
2026-04-25 05:55 6.81712 99.70187 33854 ft 472 kts 312°
2026-04-25 05:56 6.86138 99.65292 33857 ft 473 kts 312°
2026-04-25 05:56 6.90598 99.60358 33700 ft 477 kts 311°
2026-04-25 05:57 6.92826 99.57893 33154 ft 481 kts 312°
2026-04-25 05:57 6.95080 99.55400 32573 ft 476 kts 312°
2026-04-25 05:57 6.97297 99.52947 32004 ft 471 kts 312°
2026-04-25 05:57 6.99514 99.50492 31376 ft 466 kts 312°
2026-04-25 05:58 7.01688 99.48132 30783 ft 461 kts 314°
2026-04-25 05:58 7.03924 99.45752 30177 ft 456 kts 314°
2026-04-25 05:58 7.06070 99.43467 29595 ft 452 kts 314°
2026-04-25 05:58 7.08228 99.41168 28991 ft 448 kts 314°
2026-04-25 05:59 7.10360 99.38897 28404 ft 443 kts 314°
2026-04-25 05:59 7.12458 99.36661 27822 ft 439 kts 314°
2026-04-25 05:59 7.14472 99.34514 27267 ft 436 kts 314°
2026-04-25 05:59 7.16233 99.32639 26762 ft 434 kts 314°
2026-04-25 06:00 7.18251 99.30489 26207 ft 430 kts 314°
2026-04-25 06:00 7.20304 99.28298 25636 ft 428 kts 314°
2026-04-25 06:00 7.22219 99.25951 25161 ft 424 kts 304°
2026-04-25 06:00 7.23765 99.23447 25060 ft 420 kts 302°
2026-04-25 06:01 7.25318 99.20941 24955 ft 422 kts 302°
2026-04-25 06:01 7.26880 99.18425 24865 ft 424 kts 302°
2026-04-25 06:01 7.28452 99.15894 24773 ft 425 kts 303°
2026-04-25 06:01 7.30040 99.13336 24687 ft 425 kts 302°
2026-04-25 06:02 7.31608 99.10811 24600 ft 424 kts 302°
2026-04-25 06:02 7.33181 99.08279 24507 ft 424 kts 303°
2026-04-25 06:02 7.34750 99.05755 24291 ft 425 kts 302°
2026-04-25 06:02 7.36319 99.03230 24049 ft 422 kts 302°
2026-04-25 06:03 7.37863 99.00744 23804 ft 420 kts 302°
2026-04-25 06:03 7.39415 98.98244 23556 ft 419 kts 302°
2026-04-25 06:03 7.40953 98.95769 23313 ft 418 kts 302°
2026-04-25 06:03 7.42490 98.93295 23069 ft 416 kts 302°
2026-04-25 06:04 7.44038 98.90803 22814 ft 415 kts 302°
2026-04-25 06:04 7.45567 98.88341 22566 ft 414 kts 302°
2026-04-25 06:04 7.47084 98.85898 22324 ft 413 kts 302°
2026-04-25 06:04 7.48604 98.83450 22082 ft 412 kts 302°
2026-04-25 06:05 7.50137 98.80982 21838 ft 411 kts 302°
2026-04-25 06:05 7.51641 98.78559 21587 ft 409 kts 302°
2026-04-25 06:05 7.53159 98.76114 21335 ft 408 kts 302°
2026-04-25 06:05 7.54666 98.73687 21084 ft 407 kts 302°
2026-04-25 06:06 7.56163 98.71275 20839 ft 406 kts 302°
2026-04-25 06:06 7.57641 98.68892 20463 ft 407 kts 303°
2026-04-25 06:06 7.59148 98.66464 19913 ft 404 kts 303°
2026-04-25 06:06 7.60630 98.64074 19383 ft 399 kts 303°
2026-04-25 06:07 7.62081 98.61736 18857 ft 396 kts 303°
2026-04-25 06:07 7.63550 98.59367 18312 ft 393 kts 303°
2026-04-25 06:07 7.64990 98.57044 17803 ft 391 kts 303°
2026-04-25 06:07 7.66420 98.54736 17286 ft 389 kts 303°
2026-04-25 06:08 7.67839 98.52447 16778 ft 385 kts 303°
2026-04-25 06:08 7.69268 98.50141 16264 ft 382 kts 303°
2026-04-25 06:08 7.70665 98.47887 15766 ft 378 kts 303°
2026-04-25 06:08 7.72046 98.45659 15263 ft 375 kts 303°
2026-04-25 06:09 7.73427 98.43430 14769 ft 372 kts 303°
2026-04-25 06:09 7.74794 98.41222 14281 ft 368 kts 303°
2026-04-25 06:09 7.76138 98.39053 13800 ft 366 kts 302°
2026-04-25 06:09 7.77489 98.36871 13310 ft 362 kts 302°
2026-04-25 06:10 7.78813 98.34732 12833 ft 359 kts 302°
2026-04-25 06:10 7.80129 98.32605 12371 ft 358 kts 302°
2026-04-25 06:10 7.81439 98.30489 11897 ft 354 kts 302°
2026-04-25 06:10 7.82750 98.28371 11426 ft 350 kts 302°
2026-04-25 06:11 7.84027 98.26308 10974 ft 348 kts 303°
2026-04-25 06:11 7.85314 98.24228 10511 ft 345 kts 303°
2026-04-25 06:11 7.86562 98.22210 10051 ft 341 kts 303°
2026-04-25 06:11 7.87818 98.20179 9608 ft 338 kts 303°
2026-04-25 06:12 7.89053 98.18181 9169 ft 336 kts 303°
2026-04-25 06:12 7.90285 98.16188 8724 ft 333 kts 303°
2026-04-25 06:12 7.91502 98.14220 8280 ft 330 kts 303°
2026-04-25 06:12 7.92723 98.12244 7847 ft 327 kts 303°
2026-04-25 06:13 7.93916 98.10313 7424 ft 325 kts 303°
2026-04-25 06:13 7.95118 98.08368 6981 ft 323 kts 303°
2026-04-25 06:13 7.96298 98.06458 6555 ft 321 kts 303°
2026-04-25 06:14 7.99291 98.03252 5816 ft 314 kts 333°
2026-04-25 06:14 8.01319 98.02590 5335 ft 295 kts 354°
2026-04-25 06:14 8.03315 98.02392 4939 ft 280 kts 357°
2026-04-25 06:14 8.05216 98.02517 4510 ft 266 kts 16°
2026-04-25 06:15 8.06845 98.03275 4084 ft 254 kts 38°
2026-04-25 06:15 8.08049 98.04507 3772 ft 240 kts 57°
2026-04-25 06:15 8.08765 98.05981 3430 ft 230 kts 73°
2026-04-25 06:15 8.09045 98.07510 3352 ft 210 kts 84°
2026-04-25 06:16 8.09187 98.08946 3129 ft 196 kts 84°
2026-04-25 06:16 8.09317 98.10249 2989 ft 180 kts 84°
2026-04-25 06:16 8.09435 98.11472 3126 ft 175 kts 85°
2026-04-25 06:16 8.09551 98.12717 3166 ft 179 kts 85°
2026-04-25 06:17 8.09667 98.13960 3075 ft 179 kts 85°
2026-04-25 06:17 8.09784 98.15219 2883 ft 177 kts 85°
2026-04-25 06:17 8.09898 98.16444 2679 ft 176 kts 85°
2026-04-25 06:17 8.10011 98.17673 2451 ft 174 kts 84°
2026-04-25 06:18 8.10124 98.18885 2207 ft 170 kts 84°
2026-04-25 06:18 8.10235 98.20094 1980 ft 169 kts 84°
2026-04-25 06:18 8.10339 98.21207 1807 ft 147 kts 84°
2026-04-25 06:18 8.10431 98.22200 1601 ft 140 kts 84°
2026-04-25 06:19 8.10521 98.23164 1394 ft 136 kts 84°
2026-04-25 06:19 8.10611 98.24113 1215 ft 135 kts 84°
2026-04-25 06:19 8.10703 98.25079 1031 ft 138 kts 84°
2026-04-25 06:19 8.10784 98.25929 876 ft 136 kts 84°
2026-04-25 06:20 8.10871 98.26897 709 ft 143 kts 86°
2026-04-25 06:20 8.10957 98.27917 556 ft 147 kts 84°
2026-04-25 06:20 8.11065 98.28947 349 ft 142 kts 83°
2026-04-25 06:20 8.11159 98.29948 130 ft 141 kts 85°
2026-04-25 06:21 8.11251 98.30915 42 ft 129 kts 83°
2026-04-25 06:21 8.11320 98.31688 63 ft 76 kts 83°
2026-04-25 06:21 8.11360 98.32095 79 ft 39 kts 86°
2026-04-25 06:21 8.11358 98.32331 80 ft 20 kts 108°
2026-04-25 06:22 8.11319 98.32423 79 ft 9 kts 121°
2026-04-25 06:22 8.11258 98.32414 80 ft 12 kts 245°
2026-04-25 06:22 8.11244 98.32314 80 ft 15 kts 264°
2026-04-25 06:22 8.11231 98.32192 80 ft 19 kts 264°
2026-04-25 06:23 8.11219 98.32044 77 ft 23 kts 264°
2026-04-25 06:23 8.11201 98.31859 69 ft 29 kts 264°
2026-04-25 06:23 8.11181 98.31633 56 ft 35 kts 264°
2026-04-25 06:23 8.11155 98.31368 44 ft 38 kts 264°
2026-04-25 06:24 8.11130 98.31104 39 ft 32 kts 264°
2026-04-25 06:24 8.11104 98.30953 37 ft 15 kts 245°
2026-04-25 06:24 8.11079 98.30841 37 ft 18 kts 265°
2026-04-25 06:24 8.11065 98.30698 35 ft 22 kts 266°
2026-04-25 06:25 8.11051 98.30552 31 ft 19 kts 264°
2026-04-25 06:25 8.11017 98.30479 31 ft 11 kts 190°
2026-04-25 06:25 8.10938 98.30465 33 ft 11 kts 193°
2026-04-25 06:25 8.10854 98.30444 36 ft 13 kts 195°
2026-04-25 06:26 8.10760 98.30413 36 ft 12 kts 215°
2026-04-25 06:26 8.10757 98.30322 35 ft 16 kts 281°
2026-04-25 06:26 8.10772 98.30261 34 ft 5 kts 285°
2026-04-25 06:26 8.10773 98.30257 34 ft 0 kts 285°